owner,sensor,date,latitude,longitude,vertical_datum,sea_water_practical_salinity,qcFlag 
DISL,ioos:station:DISL:PPTA:1,2013-09-01T00:00:00Z,30.2791,-87.5561,1.215,19.55,1111122 
DISL,ioos:station:DISL:PPTA:1,2013-09-01T00:30:00Z,30.2791,-87.5561,1.217,18.99,1111122 
DISL,ioos:station:DISL:PPTA:1,2013-09-01T01:00:00Z,30.2791,-87.5561,1.224,19.07,1111122 
DISL,ioos:station:DISL:PPTA:1,2013-09-01T01:30:00Z,30.2791,-87.5561,1.216,22.26,1111122 
DISL,ioos:station:DISL:PPTA:1,2013-09-01T02:00:00Z,30.2791,-87.5561,1.226,17.38,1111122 
DISL,ioos:station:DISL:PPTA:1,2013-09-01T02:30:00Z,30.2791,-87.5561,1.221,19.84,1111122 
DISL,ioos:station:DISL:PPTA:1,2013-09-01T03:00:00Z,30.2791,-87.5561,1.252,21.96,1111122 
DISL,ioos:station:DISL:PPTA:1,2013-09-01T03:30:00Z,30.2791,-87.5561,1.231,22.09,1111122 
DISL,ioos:station:DISL:PPTA:1,2013-09-01T04:00:00Z,30.2791,-87.5561,1.205,24.82,1111122 
DISL,ioos:station:DISL:PPTA:1,2013-09-01T04:30:00Z,30.2791,-87.5561,1.236,27.44,1111122 
DISL,ioos:station:DISL:PPTA:1,2013-09-01T05:00:00Z,30.2791,-87.5561,1.218,29.46,1111122 
DISL,ioos:station:DISL:PPTA:1,2013-09-01T05:30:00Z,30.2791,-87.5561,1.263,31.23,1111122 
DISL,ioos:station:DISL:PPTA:1,2013-09-01T06:00:00Z,30.2791,-87.5561,1.273,30.13,1111122 
DISL,ioos:station:DISL:PPTA:1,2013-09-01T06:30:00Z,30.2791,-87.5561,1.284,30.29,1111122 
DISL,ioos:station:DISL:PPTA:1,2013-09-01T07:00:00Z,30.2791,-87.5561,1.292,30.45,1111122 
DISL,ioos:station:DISL:PPTA:1,2013-09-01T07:30:00Z,30.2791,-87.5561,1.303,30.74,1111122 
DISL,ioos:station:DISL:PPTA:1,2013-09-01T08:00:00Z,30.2791,-87.5561,1.326,29.79,1111122 
DISL,ioos:station:DISL:PPTA:1,2013-09-01T08:30:00Z,30.2791,-87.5561,1.337,31.04,1111122 
DISL,ioos:station:DISL:PPTA:1,2013-09-01T09:00:00Z,30.2791,-87.5561,1.341,31.37,1111122 
DISL,ioos:station:DISL:PPTA:1,2013-09-01T09:30:00Z,30.2791,-87.5561,1.359,31.07,1111122 
DISL,ioos:station:DISL:PPTA:1,2013-09-01T10:00:00Z,30.2791,-87.5561,1.375,31.32,1111122 
DISL,ioos:station:DISL:PPTA:1,2013-09-01T10:30:00Z,30.2791,-87.5561,1.383,31.33,1111122 
DISL,ioos:station:DISL:PPTA:1,2013-09-01T11:00:00Z,30.2791,-87.5561,1.405,31.32,1111122 
DISL,ioos:station:DISL:PPTA:1,2013-09-01T11:30:00Z,30.2791,-87.5561,1.409,31.31,1111122 
DISL,ioos:station:DISL:PPTA:1,2013-09-01T12:00:00Z,30.2791,-87.5561,1.423,31.21,1111122 
DISL,ioos:station:DISL:PPTA:1,2013-09-01T12:30:00Z,30.2791,-87.5561,1.418,31.17,1111122 
DISL,ioos:station:DISL:PPTA:1,2013-09-01T13:00:00Z,30.2791,-87.5561,1.422,31.31,1111122 
DISL,ioos:station:DISL:PPTA:1,2013-09-01T13:30:00Z,30.2791,-87.5561,1.413,31.17,1111122 
DISL,ioos:station:DISL:PPTA:1,2013-09-01T14:00:00Z,30.2791,-87.5561,1.414,30.98,1111122 
DISL,ioos:station:DISL:PPTA:1,2013-09-01T14:30:00Z,30.2791,-87.5561,1.409,31.08,1111122 
DISL,ioos:station:DISL:PPTA:1,2013-09-01T15:00:00Z,30.2791,-87.5561,1.393,31.19,1111122 
DISL,ioos:station:DISL:PPTA:1,2013-09-01T15:30:00Z,30.2791,-87.5561,1.395,31.21,1111122 
DISL,ioos:station:DISL:PPTA:1,2013-09-01T16:00:00Z,30.2791,-87.5561,1.391,30.39,1111122 
DISL,ioos:station:DISL:PPTA:1,2013-09-01T16:30:00Z,30.2791,-87.5561,1.364,28.89,1111122 
DISL,ioos:station:DISL:PPTA:1,2013-09-01T17:00:00Z,30.2791,-87.5561,1.346,29.73,1111122 
DISL,ioos:station:DISL:PPTA:1,2013-09-01T17:30:00Z,30.2791,-87.5561,1.315,29.91,1111122 
DISL,ioos:station:DISL:PPTA:1,2013-09-01T18:00:00Z,30.2791,-87.5561,1.31,29.64,1111122 
DISL,ioos:station:DISL:PPTA:1,2013-09-01T18:30:00Z,30.2791,-87.5561,1.281,29.79,1111122 
DISL,ioos:station:DISL:PPTA:1,2013-09-01T19:00:00Z,30.2791,-87.5561,1.29,23.28,1111122 
DISL,ioos:station:DISL:PPTA:1,2013-09-01T19:30:00Z,30.2791,-87.5561,1.284,22.98,1111122 
DISL,ioos:station:DISL:PPTA:1,2013-09-01T20:00:00Z,30.2791,-87.5561,1.277,22.64,1111122 
DISL,ioos:station:DISL:PPTA:1,2013-09-01T20:30:00Z,30.2791,-87.5561,1.264,22.65,1111122 
DISL,ioos:station:DISL:PPTA:1,2013-09-01T21:00:00Z,30.2791,-87.5561,1.252,21.2,1111122 
DISL,ioos:station:DISL:PPTA:1,2013-09-01T21:30:00Z,30.2791,-87.5561,1.239,27.63,1111122 
DISL,ioos:station:DISL:PPTA:1,2013-09-01T22:00:00Z,30.2791,-87.5561,1.235,24.89,1111122 
DISL,ioos:station:DISL:PPTA:1,2013-09-01T22:30:00Z,30.2791,-87.5561,1.235,21.36,1111122 
DISL,ioos:station:DISL:PPTA:1,2013-09-01T23:00:00Z,30.2791,-87.5561,1.214,20.74,1111122 
DISL,ioos:station:DISL:PPTA:1,2013-09-01T23:30:00Z,30.2791,-87.5561,1.224,20.01,1111122 
DISL,ioos:station:DISL:PPTA:1,2013-09-02T00:00:00Z,30.2791,-87.5561,1.244,18.96,1111122 
DISL,ioos:station:DISL:PPTA:1,2013-09-02T00:30:00Z,30.2791,-87.5561,1.247,19.7,1111122 
DISL,ioos:station:DISL:PPTA:1,2013-09-02T01:00:00Z,30.2791,-87.5561,1.228,19.55,1111122 
DISL,ioos:station:DISL:PPTA:1,2013-09-02T01:30:00Z,30.2791,-87.5561,1.246,18.48,1111122 
DISL,ioos:station:DISL:PPTA:1,2013-09-02T02:00:00Z,30.2791,-87.5561,1.235,19.04,1111122 
DISL,ioos:station:DISL:PPTA:1,2013-09-02T02:30:00Z,30.2791,-87.5561,1.246,21.9,1111122 
DISL,ioos:station:DISL:PPTA:1,2013-09-02T03:00:00Z,30.2791,-87.5561,1.242,21.3,1111122 
DISL,ioos:station:DISL:PPTA:1,2013-09-02T03:30:00Z,30.2791,-87.5561,1.238,22.09,1111122 
DISL,ioos:station:DISL:PPTA:1,2013-09-02T04:00:00Z,30.2791,-87.5561,1.227,23.07,1111122 
DISL,ioos:station:DISL:PPTA:1,2013-09-02T04:30:00Z,30.2791,-87.5561,1.243,24.8,1111122 
DISL,ioos:station:DISL:PPTA:1,2013-09-02T05:00:00Z,30.2791,-87.5561,1.236,29.12,1111122 
DISL,ioos:station:DISL:PPTA:1,2013-09-02T05:30:00Z,30.2791,-87.5561,1.234,30.5,1111122 
DISL,ioos:station:DISL:PPTA:1,2013-09-02T06:00:00Z,30.2791,-87.5561,1.238,30.94,1111122 
DISL,ioos:station:DISL:PPTA:1,2013-09-02T06:30:00Z,30.2791,-87.5561,1.249,31.19,1111122 
DISL,ioos:station:DISL:PPTA:1,2013-09-02T07:00:00Z,30.2791,-87.5561,1.255,31.14,1111122 
DISL,ioos:station:DISL:PPTA:1,2013-09-02T07:30:00Z,30.2791,-87.5561,1.26,31.29,1111122 
DISL,ioos:station:DISL:PPTA:1,2013-09-02T08:00:00Z,30.2791,-87.5561,1.278,31.28,1111122 
DISL,ioos:station:DISL:PPTA:1,2013-09-02T08:30:00Z,30.2791,-87.5561,1.302,31.55,1111122 
DISL,ioos:station:DISL:PPTA:1,2013-09-02T09:00:00Z,30.2791,-87.5561,1.319,31.51,1111122 
DISL,ioos:station:DISL:PPTA:1,2013-09-02T09:30:00Z,30.2791,-87.5561,1.337,31.6,1111122 
DISL,ioos:station:DISL:PPTA:1,2013-09-02T10:00:00Z,30.2791,-87.5561,1.339,31.73,1111122 
DISL,ioos:station:DISL:PPTA:1,2013-09-02T10:30:00Z,30.2791,-87.5561,1.366,31.75,1111122 
DISL,ioos:station:DISL:PPTA:1,2013-09-02T11:00:00Z,30.2791,-87.5561,1.376,30.49,1111122 
DISL,ioos:station:DISL:PPTA:1,2013-09-02T11:30:00Z,30.2791,-87.5561,1.378,31.18,1111122 
DISL,ioos:station:DISL:PPTA:1,2013-09-02T12:00:00Z,30.2791,-87.5561,1.384,30.54,1111122 
DISL,ioos:station:DISL:PPTA:1,2013-09-02T12:30:00Z,30.2791,-87.5561,1.401,30.93,1111122 
DISL,ioos:station:DISL:PPTA:1,2013-09-02T13:00:00Z,30.2791,-87.5561,1.397,30.48,1111122 
DISL,ioos:station:DISL:PPTA:1,2013-09-02T13:30:00Z,30.2791,-87.5561,1.39,30.51,1111122 
DISL,ioos:station:DISL:PPTA:1,2013-09-02T14:00:00Z,30.2791,-87.5561,1.39,30.7,1111122 
DISL,ioos:station:DISL:PPTA:1,2013-09-02T14:30:00Z,30.2791,-87.5561,1.385,30.65,1111122 
DISL,ioos:station:DISL:PPTA:1,2013-09-02T15:00:00Z,30.2791,-87.5561,1.378,30.86,1111122 
DISL,ioos:station:DISL:PPTA:1,2013-09-02T15:30:00Z,30.2791,-87.5561,1.385,31.3,1111122 
DISL,ioos:station:DISL:PPTA:1,2013-09-02T16:00:00Z,30.2791,-87.5561,1.362,30.64,1111122 
DISL,ioos:station:DISL:PPTA:1,2013-09-02T16:30:00Z,30.2791,-87.5561,1.327,29.83,1111122 
DISL,ioos:station:DISL:PPTA:1,2013-09-02T17:00:00Z,30.2791,-87.5561,1.326,28.67,1111122 
DISL,ioos:station:DISL:PPTA:1,2013-09-02T17:30:00Z,30.2791,-87.5561,1.339,30.32,1111122 
DISL,ioos:station:DISL:PPTA:1,2013-09-02T18:00:00Z,30.2791,-87.5561,1.31,29.45,1111122 
DISL,ioos:station:DISL:PPTA:1,2013-09-02T18:30:00Z,30.2791,-87.5561,1.295,30.14,1111122 
DISL,ioos:station:DISL:PPTA:1,2013-09-02T19:00:00Z,30.2791,-87.5561,1.29,24.8,1111122 
DISL,ioos:station:DISL:PPTA:1,2013-09-02T19:30:00Z,30.2791,-87.5561,1.263,24.34,1111122 
DISL,ioos:station:DISL:PPTA:1,2013-09-02T20:00:00Z,30.2791,-87.5561,1.243,23.9,1111122 
DISL,ioos:station:DISL:PPTA:1,2013-09-02T20:30:00Z,30.2791,-87.5561,1.243,23.78,1111122 
DISL,ioos:station:DISL:PPTA:1,2013-09-02T21:00:00Z,30.2791,-87.5561,1.26,22.83,1111122 
DISL,ioos:station:DISL:PPTA:1,2013-09-02T21:30:00Z,30.2791,-87.5561,1.232,22.65,1111122 
DISL,ioos:station:DISL:PPTA:1,2013-09-02T22:00:00Z,30.2791,-87.5561,1.223,22.42,1111122 
DISL,ioos:station:DISL:PPTA:1,2013-09-02T22:30:00Z,30.2791,-87.5561,1.248,25.9,1111122 
DISL,ioos:station:DISL:PPTA:1,2013-09-02T23:00:00Z,30.2791,-87.5561,1.267,19.29,1111122 
DISL,ioos:station:DISL:PPTA:1,2013-09-02T23:30:00Z,30.2791,-87.5561,1.241,20.45,1111122 
DISL,ioos:station:DISL:PPTA:1,2013-09-03T00:00:00Z,30.2791,-87.5561,1.222,25.49,1111122 
DISL,ioos:station:DISL:PPTA:1,2013-09-03T00:30:00Z,30.2791,-87.5561,1.232,21.39,1111122 
DISL,ioos:station:DISL:PPTA:1,2013-09-03T01:00:00Z,30.2791,-87.5561,1.226,20.75,1111122 
DISL,ioos:station:DISL:PPTA:1,2013-09-03T01:30:00Z,30.2791,-87.5561,1.241,22.07,1111122 
DISL,ioos:station:DISL:PPTA:1,2013-09-03T02:00:00Z,30.2791,-87.5561,1.25,19.42,1111122 
DISL,ioos:station:DISL:PPTA:1,2013-09-03T02:30:00Z,30.2791,-87.5561,1.23,19.83,1111122 
DISL,ioos:station:DISL:PPTA:1,2013-09-03T03:00:00Z,30.2791,-87.5561,1.231,24.03,1111122 
DISL,ioos:station:DISL:PPTA:1,2013-09-03T03:30:00Z,30.2791,-87.5561,1.244,23.44,1111122 
DISL,ioos:station:DISL:PPTA:1,2013-09-03T04:00:00Z,30.2791,-87.5561,1.236,21.74,1111122 
DISL,ioos:station:DISL:PPTA:1,2013-09-03T04:30:00Z,30.2791,-87.5561,1.22,26.63,1111122 
DISL,ioos:station:DISL:PPTA:1,2013-09-03T05:00:00Z,30.2791,-87.5561,1.244,31.56,1111122 
DISL,ioos:station:DISL:PPTA:1,2013-09-03T05:30:00Z,30.2791,-87.5561,1.241,31.72,1111122 
DISL,ioos:station:DISL:PPTA:1,2013-09-03T06:00:00Z,30.2791,-87.5561,1.25,31.77,1111122 
DISL,ioos:station:DISL:PPTA:1,2013-09-03T06:30:00Z,30.2791,-87.5561,1.248,31.55,1111122 
DISL,ioos:station:DISL:PPTA:1,2013-09-03T07:00:00Z,30.2791,-87.5561,1.237,31.31,1111122 
DISL,ioos:station:DISL:PPTA:1,2013-09-03T07:30:00Z,30.2791,-87.5561,1.268,31.59,1111122 
DISL,ioos:station:DISL:PPTA:1,2013-09-03T08:00:00Z,30.2791,-87.5561,1.275,30.76,1111122 
DISL,ioos:station:DISL:PPTA:1,2013-09-03T08:30:00Z,30.2791,-87.5561,1.283,30.58,1111122 
DISL,ioos:station:DISL:PPTA:1,2013-09-03T09:00:00Z,30.2791,-87.5561,1.309,31.49,1111122 
DISL,ioos:station:DISL:PPTA:1,2013-09-03T09:30:00Z,30.2791,-87.5561,1.325,30.54,1111122 
DISL,ioos:station:DISL:PPTA:1,2013-09-03T10:00:00Z,30.2791,-87.5561,1.34,31.59,1111122 
DISL,ioos:station:DISL:PPTA:1,2013-09-03T10:30:00Z,30.2791,-87.5561,1.347,31.87,1111122 
DISL,ioos:station:DISL:PPTA:1,2013-09-03T11:00:00Z,30.2791,-87.5561,1.367,30.06,1111122 
DISL,ioos:station:DISL:PPTA:1,2013-09-03T11:30:00Z,30.2791,-87.5561,1.376,30.92,1111122 
DISL,ioos:station:DISL:PPTA:1,2013-09-03T12:00:00Z,30.2791,-87.5561,1.375,30.49,1111122 
DISL,ioos:station:DISL:PPTA:1,2013-09-03T12:30:00Z,30.2791,-87.5561,1.392,30.72,1111122 
DISL,ioos:station:DISL:PPTA:1,2013-09-03T13:00:00Z,30.2791,-87.5561,1.394,30.71,1111122 
DISL,ioos:station:DISL:PPTA:1,2013-09-03T13:30:00Z,30.2791,-87.5561,1.399,30.96,1111122 
DISL,ioos:station:DISL:PPTA:1,2013-09-03T14:00:00Z,30.2791,-87.5561,1.414,31.13,1111122 
DISL,ioos:station:DISL:PPTA:1,2013-09-03T14:30:00Z,30.2791,-87.5561,1.402,30.8,1111122 
DISL,ioos:station:DISL:PPTA:1,2013-09-03T15:00:00Z,30.2791,-87.5561,1.427,31.16,1111122 
DISL,ioos:station:DISL:PPTA:1,2013-09-03T15:30:00Z,30.2791,-87.5561,1.4,31.19,1111122 
DISL,ioos:station:DISL:PPTA:1,2013-09-03T16:00:00Z,30.2791,-87.5561,1.392,30.96,1111122 
DISL,ioos:station:DISL:PPTA:1,2013-09-03T16:30:00Z,30.2791,-87.5561,1.369,30.98,1111122 
DISL,ioos:station:DISL:PPTA:1,2013-09-03T17:00:00Z,30.2791,-87.5561,1.363,30.95,1111122 
DISL,ioos:station:DISL:PPTA:1,2013-09-03T17:30:00Z,30.2791,-87.5561,1.339,29.88,1111122 
DISL,ioos:station:DISL:PPTA:1,2013-09-03T18:00:00Z,30.2791,-87.5561,1.334,28.66,1111122 
DISL,ioos:station:DISL:PPTA:1,2013-09-03T18:30:00Z,30.2791,-87.5561,1.32,30.11,1111122 
DISL,ioos:station:DISL:PPTA:1,2013-09-03T19:00:00Z,30.2791,-87.5561,1.295,29.41,1111122 
DISL,ioos:station:DISL:PPTA:1,2013-09-03T19:30:00Z,30.2791,-87.5561,1.292,28.39,1111122 
DISL,ioos:station:DISL:PPTA:1,2013-09-03T20:00:00Z,30.2791,-87.5561,1.292,24.74,1111122 
DISL,ioos:station:DISL:PPTA:1,2013-09-03T20:30:00Z,30.2791,-87.5561,1.289,23.23,1111122 
DISL,ioos:station:DISL:PPTA:1,2013-09-03T21:00:00Z,30.2791,-87.5561,1.281,22.09,1111122 
DISL,ioos:station:DISL:PPTA:1,2013-09-03T21:30:00Z,30.2791,-87.5561,1.27,21.96,1111122 
DISL,ioos:station:DISL:PPTA:1,2013-09-03T22:00:00Z,30.2791,-87.5561,1.273,21.56,1111122 
DISL,ioos:station:DISL:PPTA:1,2013-09-03T22:30:00Z,30.2791,-87.5561,1.276,20.44,1111122 
DISL,ioos:station:DISL:PPTA:1,2013-09-03T23:00:00Z,30.2791,-87.5561,1.258,25.07,1111122 
DISL,ioos:station:DISL:PPTA:1,2013-09-03T23:30:00Z,30.2791,-87.5561,1.238,28.45,1111122 
DISL,ioos:station:DISL:PPTA:1,2013-09-04T00:00:00Z,30.2791,-87.5561,1.248,18.57,1111122 
DISL,ioos:station:DISL:PPTA:1,2013-09-04T00:30:00Z,30.2791,-87.5561,1.259,19.58,1111122 
DISL,ioos:station:DISL:PPTA:1,2013-09-04T01:00:00Z,30.2791,-87.5561,1.231,20.92,1111122 
DISL,ioos:station:DISL:PPTA:1,2013-09-04T01:30:00Z,30.2791,-87.5561,1.215,19.22,1111122 
DISL,ioos:station:DISL:PPTA:1,2013-09-04T02:00:00Z,30.2791,-87.5561,1.243,20.7,1111122 
DISL,ioos:station:DISL:PPTA:1,2013-09-04T02:30:00Z,30.2791,-87.5561,1.235,21.56,1111122 
DISL,ioos:station:DISL:PPTA:1,2013-09-04T03:00:00Z,30.2791,-87.5561,1.245,18.27,1111122 
DISL,ioos:station:DISL:PPTA:1,2013-09-04T03:30:00Z,30.2791,-87.5561,1.265,23.11,1111122 
DISL,ioos:station:DISL:PPTA:1,2013-09-04T04:00:00Z,30.2791,-87.5561,1.226,21.79,1111122 
DISL,ioos:station:DISL:PPTA:1,2013-09-04T04:30:00Z,30.2791,-87.5561,1.22,17.82,1111122 
DISL,ioos:station:DISL:PPTA:1,2013-09-04T05:00:00Z,30.2791,-87.5561,1.241,18.57,1111122 
DISL,ioos:station:DISL:PPTA:1,2013-09-04T05:30:00Z,30.2791,-87.5561,1.213,22.97,1111122 
DISL,ioos:station:DISL:PPTA:1,2013-09-04T06:00:00Z,30.2791,-87.5561,1.221,19.63,1111122 
DISL,ioos:station:DISL:PPTA:1,2013-09-04T06:30:00Z,30.2791,-87.5561,1.234,19.26,1111122 
DISL,ioos:station:DISL:PPTA:1,2013-09-04T07:00:00Z,30.2791,-87.5561,1.232,19.74,1111122 
DISL,ioos:station:DISL:PPTA:1,2013-09-04T07:30:00Z,30.2791,-87.5561,1.244,25.43,1111122 
DISL,ioos:station:DISL:PPTA:1,2013-09-04T08:00:00Z,30.2791,-87.5561,1.24,25.79,1111122 
DISL,ioos:station:DISL:PPTA:1,2013-09-04T08:30:00Z,30.2791,-87.5561,1.239,25.73,1111122 
DISL,ioos:station:DISL:PPTA:1,2013-09-04T09:00:00Z,30.2791,-87.5561,1.254,27.8,1111122 
DISL,ioos:station:DISL:PPTA:1,2013-09-04T09:30:00Z,30.2791,-87.5561,1.281,28.59,1111122 
DISL,ioos:station:DISL:PPTA:1,2013-09-04T10:00:00Z,30.2791,-87.5561,1.28,30.52,1111122 
DISL,ioos:station:DISL:PPTA:1,2013-09-04T10:30:00Z,30.2791,-87.5561,1.3,30.89,1111122 
DISL,ioos:station:DISL:PPTA:1,2013-09-04T11:00:00Z,30.2791,-87.5561,1.303,30.15,1111122 
DISL,ioos:station:DISL:PPTA:1,2013-09-04T11:30:00Z,30.2791,-87.5561,1.322,29.09,1111122 
DISL,ioos:station:DISL:PPTA:1,2013-09-04T12:00:00Z,30.2791,-87.5561,1.344,29.16,1111122 
DISL,ioos:station:DISL:PPTA:1,2013-09-04T12:30:00Z,30.2791,-87.5561,1.349,29.49,1111122 
DISL,ioos:station:DISL:PPTA:1,2013-09-04T13:00:00Z,30.2791,-87.5561,1.377,29.9,1111122 
DISL,ioos:station:DISL:PPTA:1,2013-09-04T13:30:00Z,30.2791,-87.5561,1.387,29.91,1111122 
DISL,ioos:station:DISL:PPTA:1,2013-09-04T14:00:00Z,30.2791,-87.5561,1.377,29.94,1111122 
DISL,ioos:station:DISL:PPTA:1,2013-09-04T14:30:00Z,30.2791,-87.5561,1.371,29.28,1111122 
DISL,ioos:station:DISL:PPTA:1,2013-09-04T15:00:00Z,30.2791,-87.5561,1.378,29.51,1111122 
DISL,ioos:station:DISL:PPTA:1,2013-09-04T15:30:00Z,30.2791,-87.5561,1.38,29.54,1111122 
DISL,ioos:station:DISL:PPTA:1,2013-09-04T16:00:00Z,30.2791,-87.5561,1.374,29.99,1111122 
DISL,ioos:station:DISL:PPTA:1,2013-09-04T16:30:00Z,30.2791,-87.5561,1.382,29.66,1111122 
DISL,ioos:station:DISL:PPTA:1,2013-09-04T17:00:00Z,30.2791,-87.5561,1.378,30.22,1111122 
DISL,ioos:station:DISL:PPTA:1,2013-09-04T17:30:00Z,30.2791,-87.5561,1.36,29.55,1111122 
DISL,ioos:station:DISL:PPTA:1,2013-09-04T18:00:00Z,30.2791,-87.5561,1.344,29.26,1111122 
DISL,ioos:station:DISL:PPTA:1,2013-09-04T18:30:00Z,30.2791,-87.5561,1.326,28.28,1111122 
DISL,ioos:station:DISL:PPTA:1,2013-09-04T19:00:00Z,30.2791,-87.5561,1.325,26.17,1111122 
DISL,ioos:station:DISL:PPTA:1,2013-09-04T19:30:00Z,30.2791,-87.5561,1.312,28.18,1111122 
DISL,ioos:station:DISL:PPTA:1,2013-09-04T20:00:00Z,30.2791,-87.5561,1.295,27.62,1111122 
DISL,ioos:station:DISL:PPTA:1,2013-09-04T20:30:00Z,30.2791,-87.5561,1.293,21.02,1111122 
DISL,ioos:station:DISL:PPTA:1,2013-09-04T21:00:00Z,30.2791,-87.5561,1.281,20.96,1111122 
DISL,ioos:station:DISL:PPTA:1,2013-09-04T21:30:00Z,30.2791,-87.5561,1.277,20.74,1111122 
DISL,ioos:station:DISL:PPTA:1,2013-09-04T22:00:00Z,30.2791,-87.5561,1.275,20.77,1111122 
DISL,ioos:station:DISL:PPTA:1,2013-09-04T22:30:00Z,30.2791,-87.5561,1.271,21.28,1111122 
DISL,ioos:station:DISL:PPTA:1,2013-09-04T23:00:00Z,30.2791,-87.5561,1.264,23.26,1111122 
DISL,ioos:station:DISL:PPTA:1,2013-09-04T23:30:00Z,30.2791,-87.5561,1.267,20.83,1111122 
DISL,ioos:station:DISL:PPTA:1,2013-09-05T00:00:00Z,30.2791,-87.5561,1.259,21.52,1111122 
DISL,ioos:station:DISL:PPTA:1,2013-09-05T00:30:00Z,30.2791,-87.5561,1.263,21.43,1111122 
DISL,ioos:station:DISL:PPTA:1,2013-09-05T01:00:00Z,30.2791,-87.5561,1.242,20.28,1111122 
DISL,ioos:station:DISL:PPTA:1,2013-09-05T01:30:00Z,30.2791,-87.5561,1.248,18.12,1111122 
DISL,ioos:station:DISL:PPTA:1,2013-09-05T02:00:00Z,30.2791,-87.5561,1.241,19.46,1111122 
DISL,ioos:station:DISL:PPTA:1,2013-09-05T02:30:00Z,30.2791,-87.5561,1.236,19.66,1111122 
DISL,ioos:station:DISL:PPTA:1,2013-09-05T03:00:00Z,30.2791,-87.5561,1.243,19.57,1111122 
DISL,ioos:station:DISL:PPTA:1,2013-09-05T03:30:00Z,30.2791,-87.5561,1.235,18.52,1111122 
DISL,ioos:station:DISL:PPTA:1,2013-09-05T04:00:00Z,30.2791,-87.5561,1.249,18.06,1111122 
DISL,ioos:station:DISL:PPTA:1,2013-09-05T04:30:00Z,30.2791,-87.5561,1.228,16.35,1111122 
DISL,ioos:station:DISL:PPTA:1,2013-09-05T05:00:00Z,30.2791,-87.5561,1.231,17.52,1111122 
DISL,ioos:station:DISL:PPTA:1,2013-09-05T05:30:00Z,30.2791,-87.5561,1.232,17.98,1111122 
DISL,ioos:station:DISL:PPTA:1,2013-09-05T06:00:00Z,30.2791,-87.5561,1.232,18.06,1111122 
DISL,ioos:station:DISL:PPTA:1,2013-09-05T06:30:00Z,30.2791,-87.5561,1.219,19.32,1111122 
DISL,ioos:station:DISL:PPTA:1,2013-09-05T07:00:00Z,30.2791,-87.5561,1.222,17.35,1111122 
DISL,ioos:station:DISL:PPTA:1,2013-09-05T07:30:00Z,30.2791,-87.5561,1.23,18.64,1111122 
DISL,ioos:station:DISL:PPTA:1,2013-09-05T08:00:00Z,30.2791,-87.5561,1.228,22.27,1111122 
DISL,ioos:station:DISL:PPTA:1,2013-09-05T08:30:00Z,30.2791,-87.5561,1.222,16.38,1111122 
DISL,ioos:station:DISL:PPTA:1,2013-09-05T09:00:00Z,30.2791,-87.5561,1.228,17.27,1111122 
DISL,ioos:station:DISL:PPTA:1,2013-09-05T09:30:00Z,30.2791,-87.5561,1.226,16.72,1111122 
DISL,ioos:station:DISL:PPTA:1,2013-09-05T10:00:00Z,30.2791,-87.5561,1.251,17.84,1111122 
DISL,ioos:station:DISL:PPTA:1,2013-09-05T10:30:00Z,30.2791,-87.5561,1.26,17.43,1111122 
DISL,ioos:station:DISL:PPTA:1,2013-09-05T11:00:00Z,30.2791,-87.5561,1.257,26.5,1111122 
DISL,ioos:station:DISL:PPTA:1,2013-09-05T11:30:00Z,30.2791,-87.5561,1.274,28.32,1111122 
DISL,ioos:station:DISL:PPTA:1,2013-09-05T12:00:00Z,30.2791,-87.5561,1.277,27.1,1111122 
DISL,ioos:station:DISL:PPTA:1,2013-09-05T12:30:00Z,30.2791,-87.5561,1.301,28.4,1111122 
DISL,ioos:station:DISL:PPTA:1,2013-09-05T13:00:00Z,30.2791,-87.5561,1.314,28.34,1111122 
DISL,ioos:station:DISL:PPTA:1,2013-09-05T13:30:00Z,30.2791,-87.5561,1.318,28.51,1111122 
DISL,ioos:station:DISL:PPTA:1,2013-09-05T14:00:00Z,30.2791,-87.5561,1.33,27.58,1111122 
DISL,ioos:station:DISL:PPTA:1,2013-09-05T14:30:00Z,30.2791,-87.5561,1.332,28.06,1111122 
DISL,ioos:station:DISL:PPTA:1,2013-09-05T15:00:00Z,30.2791,-87.5561,1.327,28.2,1111122 
DISL,ioos:station:DISL:PPTA:1,2013-09-05T15:30:00Z,30.2791,-87.5561,1.34,28.22,1111122 
DISL,ioos:station:DISL:PPTA:1,2013-09-05T16:00:00Z,30.2791,-87.5561,1.361,28.86,1111122 
DISL,ioos:station:DISL:PPTA:1,2013-09-05T16:30:00Z,30.2791,-87.5561,1.35,28.96,1111122 
DISL,ioos:station:DISL:PPTA:1,2013-09-05T17:00:00Z,30.2791,-87.5561,1.358,29.08,1111122 
DISL,ioos:station:DISL:PPTA:1,2013-09-05T17:30:00Z,30.2791,-87.5561,1.356,28.96,1111122 
DISL,ioos:station:DISL:PPTA:1,2013-09-05T18:00:00Z,30.2791,-87.5561,1.336,29.15,1111122 
DISL,ioos:station:DISL:PPTA:1,2013-09-05T18:30:00Z,30.2791,-87.5561,1.33,28.99,1111122 
DISL,ioos:station:DISL:PPTA:1,2013-09-05T19:00:00Z,30.2791,-87.5561,1.309,27.89,1111122 
DISL,ioos:station:DISL:PPTA:1,2013-09-05T19:30:00Z,30.2791,-87.5561,1.306,25.11,1111122 
DISL,ioos:station:DISL:PPTA:1,2013-09-05T20:00:00Z,30.2791,-87.5561,1.307,25.98,1111122 
DISL,ioos:station:DISL:PPTA:1,2013-09-05T20:30:00Z,30.2791,-87.5561,1.301,21.53,1111122 
DISL,ioos:station:DISL:PPTA:1,2013-09-05T21:00:00Z,30.2791,-87.5561,1.305,19.56,1111122 
DISL,ioos:station:DISL:PPTA:1,2013-09-05T21:30:00Z,30.2791,-87.5561,1.307,18.55,1111122 
DISL,ioos:station:DISL:PPTA:1,2013-09-05T22:00:00Z,30.2791,-87.5561,1.29,18.23,1111122 
DISL,ioos:station:DISL:PPTA:1,2013-09-05T22:30:00Z,30.2791,-87.5561,1.301,21.17,1111122 
DISL,ioos:station:DISL:PPTA:1,2013-09-05T23:00:00Z,30.2791,-87.5561,1.314,20.29,1111122 
DISL,ioos:station:DISL:PPTA:1,2013-09-05T23:30:00Z,30.2791,-87.5561,1.29,21.48,1111122 
DISL,ioos:station:DISL:PPTA:1,2013-09-06T00:00:00Z,30.2791,-87.5561,1.298,22.24,1111122 
DISL,ioos:station:DISL:PPTA:1,2013-09-06T00:30:00Z,30.2791,-87.5561,1.295,19.14,1111122 
DISL,ioos:station:DISL:PPTA:1,2013-09-06T01:00:00Z,30.2791,-87.5561,1.303,23.18,1111122 
DISL,ioos:station:DISL:PPTA:1,2013-09-06T01:30:00Z,30.2791,-87.5561,1.312,17.01,1111122 
DISL,ioos:station:DISL:PPTA:1,2013-09-06T02:00:00Z,30.2791,-87.5561,1.311,18.57,1111122 
DISL,ioos:station:DISL:PPTA:1,2013-09-06T02:30:00Z,30.2791,-87.5561,1.307,17.57,1111122 
DISL,ioos:station:DISL:PPTA:1,2013-09-06T03:00:00Z,30.2791,-87.5561,1.288,19.38,1111122 
DISL,ioos:station:DISL:PPTA:1,2013-09-06T03:30:00Z,30.2791,-87.5561,1.284,19.78,1111122 
DISL,ioos:station:DISL:PPTA:1,2013-09-06T04:00:00Z,30.2791,-87.5561,1.271,17.46,1111122 
DISL,ioos:station:DISL:PPTA:1,2013-09-06T04:30:00Z,30.2791,-87.5561,1.272,17.25,1111122 
DISL,ioos:station:DISL:PPTA:1,2013-09-06T05:00:00Z,30.2791,-87.5561,1.285,17.56,1111122 
DISL,ioos:station:DISL:PPTA:1,2013-09-06T05:30:00Z,30.2791,-87.5561,1.278,15.23,1111122 
DISL,ioos:station:DISL:PPTA:1,2013-09-06T06:00:00Z,30.2791,-87.5561,1.273,18.14,1111122 
DISL,ioos:station:DISL:PPTA:1,2013-09-06T06:30:00Z,30.2791,-87.5561,1.29,17.37,1111122 
DISL,ioos:station:DISL:PPTA:1,2013-09-06T07:00:00Z,30.2791,-87.5561,1.243,14.85,1111122 
DISL,ioos:station:DISL:PPTA:1,2013-09-06T07:30:00Z,30.2791,-87.5561,1.26,15.27,1111122 
DISL,ioos:station:DISL:PPTA:1,2013-09-06T08:00:00Z,30.2791,-87.5561,1.277,13.25,1111122 
DISL,ioos:station:DISL:PPTA:1,2013-09-06T08:30:00Z,30.2791,-87.5561,1.246,13.23,1111122 
DISL,ioos:station:DISL:PPTA:1,2013-09-06T09:00:00Z,30.2791,-87.5561,1.258,13.44,1111122 
DISL,ioos:station:DISL:PPTA:1,2013-09-06T09:30:00Z,30.2791,-87.5561,1.254,20.7,1111122 
DISL,ioos:station:DISL:PPTA:1,2013-09-06T10:00:00Z,30.2791,-87.5561,1.242,22.33,1111122 
DISL,ioos:station:DISL:PPTA:1,2013-09-06T10:30:00Z,30.2791,-87.5561,1.249,15.08,1111122 
DISL,ioos:station:DISL:PPTA:1,2013-09-06T11:00:00Z,30.2791,-87.5561,1.258,18.18,1111122 
DISL,ioos:station:DISL:PPTA:1,2013-09-06T11:30:00Z,30.2791,-87.5561,1.271,13.23,1111122 
DISL,ioos:station:DISL:PPTA:1,2013-09-06T12:00:00Z,30.2791,-87.5561,1.268,15.24,1111122 
DISL,ioos:station:DISL:PPTA:1,2013-09-06T12:30:00Z,30.2791,-87.5561,1.277,14.08,1111122 
DISL,ioos:station:DISL:PPTA:1,2013-09-06T13:00:00Z,30.2791,-87.5561,1.281,15.45,1111122 
DISL,ioos:station:DISL:PPTA:1,2013-09-06T13:30:00Z,30.2791,-87.5561,1.284,22.05,1111122 
DISL,ioos:station:DISL:PPTA:1,2013-09-06T14:00:00Z,30.2791,-87.5561,1.285,27.69,1111122 